Terminal Aerodrome Forecast
Issued by NWS Glasgow, MT

Home | Current Version | Previous Version | Text Only | Print | Product List | Glossary On
Versions: 1 2 3 4 5 6 7 8 9 10 11 12 13 14 15 16 17
000
FTUS45 KGGW 021122
TAFGGW
TAF
KGGW 021122Z 0212/0312 10010KT P6SM SCT200
     FM021500 14011KT P6SM FEW150
     FM021800 22009KT P6SM FEW150
     FM030000 33006KT P6SM SCT150
     FM030300 36013KT P6SM SCT150=

USA.gov is the U.S. government's official web portal to all federal, state and local government web resources and services.